Weather History for Plattsmouth, NE

Change the Weather History Date:

Sunday, August 18, 2013

  Actual Average (KOFF) Record (KOFF)
Temperature  
Mean Temperature 69 °F -  
Max Temperature 81 °F 82 °F 102 °F (2003)
Min Temperature 57 °F 63 °F 46 °F (2012)
Cooling Degree Days 4    
Growing Degree Days 19 (Base 50)    
Moisture  
Dew Point 59 °F    
Average Humidity 71    
Maximum Humidity 96    
Minimum Humidity 46    
Precipitation  
Precipitation 0.00 in - - ()
Sea Level Pressure  
Sea Level Pressure 30.13 in    
Wind  
Wind Speed 5 mph (SSE)    
Max Wind Speed 13 mph    
Max Gust Speed 17 mph    
Visibility 10 miles    
Events      
Averages and records for this station are not official NWS values.
T = Trace of Precipitation, MM = Missing Value Source: NWS Daily Summary

Daily Weather History Graph

Daily Weather History Graph

Search for Another Location

Airport:

Trip Planner

Search our weather history database for the weather conditions in past years. The results will help you decide how hot, cold, wet, or windy it might be!

Date:

Astronomy

Aug. 18, 2013 Rise Set
Actual Time 6:36 AM CDT 8:17 PM CDT
Civil Twilight 6:07 AM CDT 8:46 PM CDT
Nautical Twilight 5:32 AM CDT 9:21 PM CDT
Astronomical Twilight 4:54 AM CDT 9:59 PM CDT
Moon 6:24 PM CDT (8/18) 3:46 AM CDT (8/18)
Length of Visible Light 14h 38m
Length of Day
13h 40m
Waxing Gibbous, 92% of the Moon is Illuminated
Aug 18
Waxing Gibbous
Aug 20
Full
Aug 28
Last Quarter
Sep 5
New
Sep 12
First Quarter

Hourly Weather History & Observations

Time (CDT) Temp. Heat Index Dew Point Humidity Pressure Visibility Wind Dir Wind Speed Gust Speed Precip Events Conditions
12:15 AM 63.7 °F - 55.9 °F 76% 30.14 in 10.0 mi SSE 3.5 mph - N/A   Clear
12:35 AM 62.4 °F - 56.1 °F 80% 30.15 in 10.0 mi SSE 3.5 mph - N/A   Clear
12:55 AM 62.8 °F - 55.9 °F 78% 30.15 in 10.0 mi SSE 4.6 mph - N/A   Clear
1:15 AM 62.1 °F - 55.9 °F 80% 30.15 in 10.0 mi SSE 3.5 mph - N/A   Clear
1:35 AM 62.2 °F - 56.3 °F 81% 30.15 in 10.0 mi SSE 3.5 mph - N/A   Clear
1:55 AM 61.3 °F - 56.1 °F 83% 30.15 in 10.0 mi South 3.5 mph - N/A   Clear
2:15 AM 60.8 °F - 56.1 °F 85% 30.15 in 10.0 mi South 3.5 mph - N/A   Clear
2:35 AM 60.6 °F - 56.3 °F 86% 30.14 in 10.0 mi Calm Calm - N/A   Clear
2:55 AM 61.5 °F - 55.9 °F 82% 30.15 in 10.0 mi Calm Calm - N/A   Clear
3:15 AM 59.5 °F - 55.9 °F 88% 30.15 in 10.0 mi Calm Calm - N/A   Clear
3:35 AM 59.9 °F - 56.5 °F 88% 30.15 in 10.0 mi Calm Calm - N/A   Clear
3:55 AM 60.3 °F - 56.7 °F 88% 30.15 in 10.0 mi SSE 3.5 mph - N/A   Clear
4:15 AM 59.4 °F - 56.3 °F 90% 30.14 in 10.0 mi SE 4.6 mph - N/A   Clear
4:35 AM 58.5 °F - 56.7 °F 94% 30.14 in 10.0 mi SE 3.5 mph - N/A   Clear
4:55 AM 58.1 °F - 56.7 °F 95% 30.15 in 7.0 mi SSE 4.6 mph - N/A   Clear
5:15 AM 58.6 °F - 57.4 °F 96% 30.15 in 7.0 mi SE 4.6 mph - N/A   Clear
5:35 AM 58.1 °F - 56.5 °F 94% 30.15 in 7.0 mi SE 5.8 mph - N/A   Clear
5:55 AM 58.1 °F - 57.0 °F 96% 30.15 in 7.0 mi SE 5.8 mph - N/A   Clear
6:15 AM 58.1 °F - 56.8 °F 96% 30.16 in 7.0 mi SSE 3.5 mph - N/A   Clear
6:35 AM 57.9 °F - 56.7 °F 96% 30.16 in 7.0 mi SSE 4.6 mph - N/A   Clear
6:55 AM 57.9 °F - 56.5 °F 95% 30.16 in 5.0 mi SE 4.6 mph - N/A   Clear
7:15 AM 58.5 °F - 57.4 °F 96% 30.17 in 7.0 mi SE 3.5 mph - N/A   Clear
7:35 AM 59.7 °F - 58.1 °F 94% 30.17 in 7.0 mi SE 5.8 mph - N/A   Clear
7:55 AM 60.8 °F - 58.5 °F 92% 30.17 in 7.0 mi SE 5.8 mph - N/A   Clear
8:15 AM 62.4 °F - 59.4 °F 90% 30.17 in 10.0 mi SE 5.8 mph - N/A   Clear
8:35 AM 64.4 °F - 59.9 °F 85% 30.17 in 10.0 mi SE 4.6 mph - N/A   Clear
8:55 AM 65.7 °F - 60.1 °F 82% 30.17 in 10.0 mi SE 4.6 mph - N/A   Clear
9:15 AM 67.6 °F - 60.4 °F 78% 30.18 in 10.0 mi SSE 4.6 mph - N/A   Clear
9:35 AM 68.7 °F - 60.1 °F 74% 30.18 in 10.0 mi SE 4.6 mph - N/A   Clear
9:55 AM 70.3 °F - 60.1 °F 70% 30.17 in 10.0 mi SSE 4.6 mph - N/A   Clear
10:15 AM 72.1 °F - 60.1 °F 66% 30.17 in 10.0 mi SSE 6.9 mph - N/A   Clear
10:35 AM 73.4 °F - 59.7 °F 62% 30.18 in 10.0 mi SSE 8.1 mph - N/A   Clear
10:55 AM 74.3 °F - 59.2 °F 59% 30.17 in 10.0 mi SSE 6.9 mph - N/A   Clear
11:15 AM 75.2 °F - 56.8 °F 53% 30.17 in 10.0 mi South 10.4 mph - N/A   Clear
11:35 AM 75.7 °F - 55.9 °F 50% 30.16 in 10.0 mi South 10.4 mph - N/A   Clear
11:55 AM 76.5 °F - 56.5 °F 50% 30.16 in 10.0 mi SSE 9.2 mph - N/A   Clear
12:15 PM 76.8 °F - 56.5 °F 49% 30.16 in 10.0 mi SSE 6.9 mph - N/A   Clear
12:35 PM 77.5 °F - 57.2 °F 49% 30.15 in 10.0 mi SSE 6.9 mph - N/A   Clear
12:55 PM 77.5 °F - 57.0 °F 49% 30.14 in 10.0 mi SSE 10.4 mph 16.1 mph N/A   Scattered Clouds
1:15 PM 79.0 °F - 57.4 °F 47% 30.14 in 10.0 mi SSE 10.4 mph - N/A   Scattered Clouds
1:35 PM 78.8 °F - 56.7 °F 46% 30.13 in 10.0 mi SSE 11.5 mph 16.1 mph N/A   Clear
1:55 PM 79.0 °F - 57.6 °F 48% 30.12 in 10.0 mi South 12.7 mph 17.3 mph N/A   Clear
2:15 PM 79.5 °F - 57.9 °F 47% 30.12 in 10.0 mi South 9.2 mph 17.3 mph N/A   Scattered Clouds
2:35 PM 79.7 °F - 57.2 °F 46% 30.11 in 10.0 mi SE 10.4 mph - N/A   Scattered Clouds
2:55 PM 79.7 °F - 57.2 °F 46% 30.11 in 10.0 mi SSE 8.1 mph 17.3 mph N/A   Clear
3:15 PM 78.4 °F - 58.8 °F 51% 30.11 in 10.0 mi SSE 6.9 mph 16.1 mph N/A   Scattered Clouds
3:35 PM 81.5 °F 81.7 °F 58.8 °F 46% 30.11 in 10.0 mi SSE 8.1 mph 16.1 mph N/A   Scattered Clouds
3:55 PM 80.1 °F 80.7 °F 58.6 °F 48% 30.10 in 10.0 mi SSE 8.1 mph - N/A   Scattered Clouds
4:15 PM 79.3 °F - 59.2 °F 50% 30.10 in 10.0 mi SSE 8.1 mph - N/A   Scattered Clouds
4:35 PM 80.4 °F 81.1 °F 59.5 °F 49% 30.10 in 10.0 mi South 8.1 mph - N/A   Scattered Clouds
4:55 PM 79.5 °F - 58.8 °F 49% 30.09 in 10.0 mi SSE 11.5 mph - N/A   Clear
5:15 PM 79.7 °F - 59.5 °F 50% 30.09 in 10.0 mi SSE 10.4 mph - N/A   Clear
5:35 PM 79.9 °F - 59.7 °F 50% 30.08 in 10.0 mi SSE 10.4 mph - N/A   Clear
5:55 PM 79.7 °F - 59.7 °F 50% 30.08 in 10.0 mi SSE 8.1 mph - N/A   Clear
6:15 PM 78.8 °F - 59.9 °F 52% 30.08 in 10.0 mi SSE 9.2 mph - N/A   Clear
6:35 PM 78.4 °F - 60.4 °F 54% 30.07 in 10.0 mi SSE 6.9 mph - N/A   Clear
6:55 PM 77.5 °F - 60.4 °F 55% 30.07 in 10.0 mi SSE 8.1 mph - N/A   Clear
7:15 PM 76.6 °F - 60.8 °F 58% 30.07 in 10.0 mi SE 5.8 mph - N/A   Clear
7:35 PM 75.4 °F - 61.2 °F 61% 30.07 in 10.0 mi SSE 5.8 mph - N/A   Clear
7:55 PM 73.8 °F - 61.5 °F 65% 30.07 in 10.0 mi SE 4.6 mph - N/A   Clear
8:15 PM 72.0 °F - 61.5 °F 70% 30.07 in 10.0 mi SSE 4.6 mph - N/A   Clear
8:35 PM 71.1 °F - 61.5 °F 72% 30.07 in 10.0 mi SSE 4.6 mph - N/A   Clear
8:55 PM 70.3 °F - 61.7 °F 74% 30.08 in 10.0 mi SSE 3.5 mph - N/A   Clear
9:15 PM 70.0 °F - 61.9 °F 75% 30.08 in 10.0 mi SE 4.6 mph - N/A   Clear
9:35 PM 69.3 °F - 62.2 °F 78% 30.09 in 10.0 mi SE 4.6 mph - N/A   Clear
9:55 PM 68.4 °F - 62.6 °F 82% 30.09 in 10.0 mi SE 4.6 mph - N/A   Clear
10:15 PM 68.0 °F - 62.6 °F 83% 30.10 in 10.0 mi SSE 4.6 mph - N/A   Clear
10:35 PM 67.5 °F - 62.6 °F 84% 30.10 in 10.0 mi SSE 5.8 mph - N/A   Clear
10:55 PM 67.5 °F - 62.6 °F 84% 30.10 in 10.0 mi SSE 5.8 mph - N/A   Clear
11:15 PM 67.3 °F - 62.1 °F 83% 30.10 in 10.0 mi SSE 5.8 mph - N/A   Clear
11:35 PM 66.7 °F - 61.9 °F 84% 30.11 in 10.0 mi SSE 6.9 mph - N/A   Clear
11:55 PM 66.7 °F - 62.2 °F 85% 30.10 in 10.0 mi SSE 6.9 mph - N/A   Clear